Location: Haliburton Scout Reserve
(45.0900°N, 78.3200°W)
Time: 18:46:32
(UTC-05:00)

Courier 1B - Pass Details

Date: 04 December 2023
Orbit: 962 x 1209 km, 28.3° (Epoch: 23 February)

Event Time Altitude Azimuth Distance (km) Brightness Sun altitude
Rises 12:14:36 0° 242° (WSW) 3,671 10.9 22.6°
Reaches altitude 10° 12:18:17 10° 223° (SW) 2,699 10.7 22.6°
Maximum altitude 12:22:12 17° 186° (S) 2,230 12.4 22.5°
Drops below altitude 10° 12:26:07 10° 148° (SSE) 2,684 10.8 22.4°
Sets 12:29:45 0° 128° (SE) 3,642 10.9 22.4°
